Volver al catálogo

FENGYUN 1C DEB

LostSSO
NORAD 31851·DEBRIS·🇨🇳 China

Lanzado May 10, 1999 desde Taiyuan Satellite Launch Center

Loading…

Próximos Pases (próximas 24 horas)

TLE

ObsoletoSource: Space-Track

Época: Jun 23, 2026, 09:04 UTC

1 31851U 99025CJR 26174.37811094  .00002008  00000-0  15580-2 0  9997
2 31851  98.7874  22.1027 0200908 118.9912 243.1545 13.84589353641326

Sigue FENGYUN 1C DEB en tiempo real con AllMySat

Download on the App Store